This demonstration page uses our WeatherBlox Daily Observations layout. Learn more.

Left ArrowRight Arrow

Hourly Observations for June 12, 2016

Temp ( °F °C ) Dew Point ( °F °C ) Humidity (%) Winds ( mph kmh ) Pressure ( in mb ) Visibility ( mi km ) Precip ( " mm )
12:53 am 00:53 Clear 75 23.9 33 0.6 22 22 NNW 9 15 29.88 1012 10 16 0.00 0.00
1:53 am 01:53 Clear 75 23.9 34 1.1 22 22 N 12 19 29.88 1012 10 16 0.00 0.00
2:53 am 02:53 Clear 74 23.3 35 1.7 24 24 NNW 12 19 29.87 1012 10 16 0.00 0.00
3:53 am 03:53 Clear 74 23.3 36 2.2 25 25 NNW 13 20 29.88 1012 10 16 0.00 0.00
4:53 am 04:53 Clear 73 22.8 35 1.7 25 25 NNW 13 20 29.89 1012 10 16 0.00 0.00
5:53 am 05:53 Sunny 73 22.8 34 1.1 24 24 NNW 13 20 29.91 1013 10 16 0.00 0.00
6:53 am 06:53 Sunny 74 23.3 35 1.7 24 24 N 13 20 29.93 1013 10 16 0.00 0.00
7:53 am 07:53 Sunny 77 25 35 1.7 22 22 N 10 17 29.93 1014 10 16 0.00 0.00
8:53 am 08:53 Sunny 79 26.1 34 1.1 20 20 N 14 22 29.94 1014 10 16 0.00 0.00
9:53 am 09:53 Sunny 84 28.9 32 0 15 15 N 20 31 29.93 1014 10 16 0.00 0.00
10:53 am 10:53 Sunny 86 30 32 0 14 14 N 20 31 29.93 1013 10 16 0.00 0.00
11:53 am 11:53 Sunny 90 32.2 32 0 13 13 N 16 26 29.92 1013 10 16 0.00 0.00
12:53 pm 12:53 Sunny 91 32.8 32 0 12 12 N 15 24 29.91 1013 10 16 0.00 0.00
1:53 pm 13:53 Sunny 92 33.3 30 -1.1 11 11 WNW 12 19 29.90 1013 10 16 0.00 0.00
2:53 pm 14:53 Sunny 94 34.4 29 -1.7 10 10 N 12 19 29.90 1012 10 16 0.00 0.00
3:53 pm 15:53 Sunny 93 34 28 -2 10 10 VRB 7 11 29.88 1012 10 16 0.00 0.00
4:53 pm 16:53 Sunny 96 35.6 20 -6.7 6 6 N 8 13 29.87 1012 10 16 0.00 0.00
5:53 pm 17:53 Sunny 95 35 23 -5 7 7 VRB 3 6 29.87 1011 10 16 0.00 0.00
6:53 pm 18:53 Sunny 95 35 23 -5 7 7 E 3 6 29.87 1011 10 16 0.00 0.00
7:53 pm 19:53 Sunny 92 33.3 26 -3.3 9 9 SE 3 6 29.87 1011 10 16 0.00 0.00
8:53 pm 20:53 Clear 83 28.3 50 10 32 32 S 15 24 29.88 1012 10 16 0.00 0.00
9:53 pm 21:53 Clear 81 27.2 52 11.1 37 37 SSE 13 20 29.91 1013 10 16 0.00 0.00
10:53 pm 22:53 Clear 78 25.6 52 11.1 40 40 S 3 6 29.94 1014 10 16 0.00 0.00
11:53 pm 23:53 Clear 73 22.8 52 11.1 48 48 NNW 3 6 29.94 1014 10 16 0.00 0.00

Powered by AerisWeather